Location: Unspecified
(0.0000°N, 0.0000°E)
Time: 13:42:36
(UTC+00:00)

Explorer 7 - Pass Details

Date: 28 November 2019
Orbit: 485 x 680 km, 50.3° (Epoch: 08 December)

Event Time Altitude Azimuth Distance (km) Brightness Sun altitude
Rises 16:59:47 0° 209° (SSW) 2,924 11.4 11.2°
Reaches altitude 10° 17:02:06 10° 205° (SSW) 2,040 10.6 10.7°
Maximum altitude 17:06:45 57° 126° (SE) 782 7.6 9.6°
Drops below altitude 10° 17:11:32 10° 48° (NE) 2,099 9.2 8.5°
Sets 17:13:56 0° 44° (NE) 3,017 10.0 7.9°
